Location: Newark
(61.5000°N, 23.7667°E)
Time: 14:50:17
(UTC+00:00)

DIWATA 2B (PO-101) - Visible Passes

Search period start: 15 November 2019 00:00
Search period end: 25 November 2019 00:00
Orbit: 586 x 600 km, 97.9° (Epoch: 15 November)

Date Brightness Start Highest point End Pass type
(mag) Time Alt. Az. Time Alt. Az. Time Alt. Az.
15 Nov ? 15:01:53 10° NNW 15:03:41 13° NW 15:05:29 10° WNW visible
16 Nov ? 15:11:06 10° NNW 15:12:29 11° NW 15:13:51 10° NW visible
17 Nov ? 15:20:31 10° NNW 15:21:16 10° NW 15:22:00 10° NW visible
22 Nov ? 14:28:09 10° N 14:31:00 18° NW 14:33:51 10° W visible
23 Nov ? 14:37:12 10° N 14:39:49 16° NW 14:42:26 10° W visible
24 Nov ? 14:46:17 10° N 14:48:38 15° NW 14:50:59 10° WNW visible
